DROR 1

Last updated on Sun Jun 21 2026 00:03:09 GMT+0000 (Coordinated Universal Time)

1 64784U 25148A 26171.39120382 -.00000039 00000+0 00000+0 0 9995 2 64784 0.0439 72.5487 0002642 318.5944 14.2794 1.00271314 3322
UTC large
Height (km)
Speed (km/s)
/
Latitude / Longitude
Inclination (degrees)
Orbital Period (minutes)
Azimuth
Elevation
Range (km)
Doppler Factor

Next 0 passes for location: London (51.5072 / 0.1276)

No passes found over London.
DROR 1